Vorticity
8 12 13 13 10 14 24 24 14 9 9 10 13 15 15 15 15 14 14 14 13 12 10 7 5 5 6 7 9 12 16 19 21 24 24 24 24 23 20 20 21 22 22 22 21 15 8 11 18 16 2 -11 -13 -15 -18 -12 -1 11 23 26 27 28 18 6 7 13 15 15 9 -1 -12 -18 -17 -8 4 15 18 14 8 6 8 10 8 2 1
8 12 14 13 11 12 21 24 17 10 8 7 7 9 9 9 10 10 10 10 10 10 9 7 7 7 6 7 7 7 9 13 16 19 21 22 24 26 26 24 21 21 22 23 24 23 17 10 10 16 18 9 -4 -11 -14 -14 -13 -10 0 11 20 32 35 21 4 1 7 11 12 12 10 2 -11 -19 -15 -3 9 15 13 9 9 12 13 8 4
9 13 15 13 11 12 19 23 19 13 11 9 8 7 7 6 6 6 7 6 7 7 8 8 8 8 9 9 9 9 8 9 12 14 16 17 18 21 26 28 27 23 21 21 23 25 25 20 13 10 14 19 14 4 -4 -6 -6 -9 -12 -9 -3 8 26 35 24 5 -5 -5 0 3 6 9 7 -2 -11 -13 -6 5 11 13 13 12 11 9 8
9 13 15 13 11 13 18 21 19 14 11 11 10 9 9 8 8 8 7 7 7 7 7 8 9 9 11 11 11 11 10 9 10 11 13 15 15 16 18 23 28 29 26 22 21 22 25 25 23 16 10 11 16 17 10 2 1 1 -5 -9 -10 -12 -4 16 32 30 13 -2 -4 -0 0 1 4 6 1 -7 -12 -10 -3 6 12 15 13 7 3
10 13 14 12 11 14 18 20 17 13 10 9 9 9 9 9 9 9 8 8 8 9 9 10 11 12 13 14 13 12 12 11 11 11 12 13 14 15 15 16 21 27 30 29 25 23 23 23 25 25 21 14 10 13 15 11 6 4 1 -3 -4 -6 -11 -9 5 24 31 24 12 5 3 3 3 6 7 4 -4 -13 -14 -9 -2 5 11 10 6
11 13 13 11 12 16 19 20 16 12 10 9 8 9 9 10 10 10 10 10 10 11 12 12 14 15 15 15 14 14 13 12 13 13 13 13 13 14 15 15 15 19 25 30 32 29 26 25 24 25 27 24 18 12 11 13 12 9 4 -2 -3 1 1 -4 -7 -1 14 28 30 21 12 8 9 12 14 15 11 1 -8 -12 -10 -6 -1 5 10
12 13 11 11 14 18 20 19 16 12 9 8 8 9 9 10 10 11 11 13 13 13 14 15 15 16 17 17 16 15 15 13 13 14 14 15 15 14 15 15 15 15 17 22 29 32 31 30 27 26 26 27 27 22 15 12 11 12 11 5 -1 -2 4 7 4 -1 -3 5 18 26 22 12 7 8 13 17 18 14 7 -2 -9 -11 -10 -8 -4
11 11 11 11 14 19 19 17 14 11 8 8 8 8 9 9 10 12 13 14 15 16 17 18 20 20 18 18 17 16 16 15 15 15 15 15 16 15 14 14 14 15 15 16 20 25 29 31 30 29 27 26 27 28 26 21 13 10 11 12 8 2 0 3 6 9 6 -2 -2 9 19 20 12 6 7 13 16 15 14 13 7 -3 -8 -11 -15
11 11 10 11 14 18 19 16 13 10 8 8 8 7 8 9 10 12 14 16 17 18 20 22 22 22 19 18 17 16 16 17 16 15 16 16 16 16 15 15 14 14 14 15 16 18 22 26 29 30 30 30 28 27 27 29 26 18 11 9 11 9 6 2 1 5 10 8 -1 -6 2 14 18 13 7 6 11 13 11 15 19 16 10 4 -4
11 11 11 11 13 17 18 15 12 10 9 8 7 6 7 9 12 14 16 17 19 20 23 24 22 20 19 17 17 16 15 16 16 16 16 16 16 16 16 15 15 14 14 14 15 16 17 20 24 26 28 30 30 30 29 28 30 30 25 17 12 10 9 7 4 3 5 9 7 -1 -5 -1 5 10 11 8 8 11 11 11 14 17 20 21 18
10 11 11 11 12 15 17 14 11 10 9 7 7 7 8 10 13 16 18 19 21 23 24 23 21 19 18 17 16 16 15 15 15 15 16 16 16 17 16 16 16 15 15 14 14 15 16 18 20 22 25 27 28 30 30 29 28 29 30 29 24 17 12 8 7 6 3 5 7 5 3 0 -4 -5 2 7 7 6 9 12 12 12 12 15 19
10 12 12 11 12 14 15 14 12 10 9 7 7 7 9 12 15 17 19 20 22 24 23 21 19 17 17 16 15 15 15 14 14 14 15 15 16 16 16 17 16 15 15 14 15 15 16 17 19 19 20 22 25 26 27 28 29 28 27 28 29 27 23 16 11 7 4 6 7 6 6 6 2 -4 -7 -5 1 4 4 6 10 12 11 9 7
10 12 12 12 13 14 14 14 12 10 9 8 8 9 10 14 17 19 20 21 22 23 22 20 19 17 16 15 15 14 14 15 15 15 15 15 15 16 16 16 17 17 15 14 14 15 16 17 18 19 19 19 21 24 25 25 27 28 29 28 28 28 28 27 23 15 9 5 5 6 7 4 4 5 1 -5 -5 0 2 1 1 3 7 12 11
11 12 13 13 14 14 14 14 11 10 10 8 8 10 12 16 19 20 20 21 22 21 20 18 18 16 15 15 14 14 15 15 15 15 15 15 15 15 16 16 16 16 16 15 14 14 15 17 17 18 19 19 19 20 22 24 25 25 27 29 30 29 28 29 30 29 24 16 8 5 4 4 5 4 4 2 -1 -1 1 1 -1 -4 -3 2 7
11 11 12 13 14 14 14 13 11 10 10 9 9 11 15 18 21 21 21 21 20 19 18 17 17 16 15 14 14 14 14 15 15 15 15 15 15 15 16 16 16 15 15 15 14 14 14 15 17 17 17 18 19 18 18 20 21 23 24 25 28 30 29 29 29 31 32 30 24 15 4 3 7 5 2 4 7 4 0 -1 0 1 -0 -2 -3
11 11 12 13 14 14 13 12 12 11 10 10 11 13 17 20 22 21 20 19 17 16 16 16 16 16 15 14 14 14 14 14 15 14 14 14 14 15 16 16 15 14 13 13 13 14 15 14 14 15 16 16 18 19 20 20 19 20 22 23 25 26 28 30 30 31 32 33 34 32 21 10 7 6 3 3 7 9 6 2 2 3 5 5 1
11 11 13 13 14 14 14 13 12 11 10 11 12 15 18 21 22 20 18 17 15 14 14 14 15 16 16 16 15 15 15 14 14 14 14 14 14 15 15 16 15 14 12 12 12 13 14 15 14 13 14 15 16 18 20 22 21 20 20 22 23 24 24 26 28 30 32 33 33 35 35 28 19 12 6 3 4 6 6 6 5 1 2 7 8
12 11 12 13 14 14 14 13 12 11 11 12 13 17 20 22 21 19 17 15 13 13 13 13 13 14 15 15 15 16 15 15 14 14 14 13 14 15 16 16 15 13 12 12 13 13 13 13 13 13 14 15 14 15 17 20 21 21 20 19 20 21 22 21 22 25 27 31 32 32 33 34 31 27 19 11 8 7 4 6 7 4 4 7 6
11 12 12 13 14 15 14 13 12 12 11 12 15 19 21 21 20 18 16 15 13 13 13 13 13 13 13 14 14 14 15 14 14 14 14 14 15 16 17 16 15 13 13 13 14 15 16 15 12 12 15 16 14 12 14 17 18 19 20 20 19 21 22 21 21 22 22 25 29 30 29 29 30 32 29 22 17 13 7 5 5 4 5 8 8
11 11 13 14 15 15 14 13 13 12 12 13 17 20 22 21 18 17 16 15 14 14 14 14 13 13 13 13 13 13 14 14 14 14 14 14 15 16 16 16 14 12 13 14 15 17 18 17 13 10 12 16 14 11 14 18 18 18 19 21 21 21 22 22 23 22 21 22 26 28 30 29 28 29 31 29 26 24 19 13 7 3 1 4 8
12 12 14 15 15 15 14 14 13 12 12 15 18 22 22 20 17 16 15 14 13 14 14 13 13 13 13 13 13 13 13 13 14 14 15 15 15 15 15 14 13 12 12 14 17 19 20 19 15 10 12 15 14 12 15 19 18 17 16 16 17 16 16 17 19 20 20 20 22 25 29 30 30 31 31 30 29 29 30 28 21 14 8 4 3
14 15 16 16 16 15 14 14 13 12 13 17 21 23 21 17 15 14 14 13 12 12 12 11 11 12 11 12 12 11 12 12 13 13 14 14 14 14 14 13 12 12 13 14 17 20 20 19 15 11 12 15 14 14 17 18 15 13 13 12 12 12 13 13 13 14 16 17 17 19 21 25 28 31 33 32 29 28 29 33 33 30 25 18 10
16 17 17 16 16 15 14 13 12 13 15 19 21 21 18 15 13 14 13 12 11 11 10 11 11 12 12 11 10 10 10 11 11 12 13 13 13 13 13 13 12 11 12 15 19 20 19 16 14 13 13 14 15 16 17 15 12 11 11 12 13 14 15 16 16 16 16 17 16 16 16 17 19 22 26 31 32 30 28 28 30 32 34 32 25
17 17 16 16 15 14 14 13 12 14 17 20 21 19 16 13 13 13 13 12 11 10 11 13 14 15 15 14 13 13 11 10 10 10 11 12 12 13 12 11 12 11 12 15 18 18 16 15 14 14 14 14 16 16 15 13 11 11 11 13 15 16 17 18 19 19 19 19 19 19 18 18 17 16 17 19 23 28 29 26 23 23 26 31 33
17 16 16 16 15 14 13 13 14 16 18 20 19 17 14 13 13 14 13 12 11 11 14 18 22 24 25 24 23 21 20 18 15 12 10 10 10 12 12 11 11 11 13 16 17 15 15 15 14 14 15 15 15 13 12 11 11 12 14 15 15 15 16 16 16 17 19 20 21 22 22 22 22 20 18 15 14 16 20 23 24 22 21 23 28
16 16 16 15 15 14 13 13 16 18 19 19 17 15 13 13 13 14 13 12 11 14 19 25 27 25 23 21 19 19 19 20 20 18 15 12 10 10 11 11 11 11 14 16 16 15 15 15 14 14 14 15 14 11 10 11 12 13 14 15 15 14 14 14 15 16 19 20 22 23 24 25 25 25 23 22 19 16 15 16 19 21 21 22 23
16 16 16 15 14 14 14 15 18 19 18 17 16 14 13 13 13 13 13 12 14 19 24 25 21 16 12 9 9 11 13 15 18 19 18 16 13 10 10 10 11 12 14 16 15 15 15 15 14 15 15 14 13 11 11 12 12 13 14 14 14 14 14 15 16 16 18 20 23 25 26 27 28 28 27 26 25 23 20 17 16 16 17 18 20
17 16 16 15 15 15 15 16 18 19 17 16 14 13 12 13 13 13 13 14 17 22 23 18 12 9 8 7 7 9 13 16 18 19 19 18 17 13 10 10 11 11 14 15 14 14 15 14 14 15 14 12 11 12 13 13 13 14 15 15 15 15 15 15 15 16 18 21 24 26 27 28 28 28 29 29 28 28 26 23 19 17 16 16 17
17 17 16 16 15 16 17 18 18 18 17 15 13 12 11 12 13 13 13 15 19 23 20 13 9 9 8 6 6 9 14 19 23 23 22 20 19 17 12 10 11 12 13 13 14 14 14 14 14 14 12 12 13 14 14 15 15 15 15 15 15 14 13 13 15 17 20 23 26 28 29 28 28 29 29 29 30 29 29 28 26 22 20 18 18
18 18 17 16 17 17 18 18 17 16 16 14 12 11 10 11 12 12 13 17 20 20 16 11 8 9 8 6 6 11 18 22 26 29 27 23 21 19 14 10 10 11 12 12 13 14 14 14 13 12 12 13 14 14 13 13 14 14 14 14 13 13 14 16 18 21 24 26 28 29 30 30 29 28 29 30 31 30 30 30 30 28 26 23 21
19 18 17 17 18 18 18 17 16 15 15 13 12 11 10 10 12 12 14 18 21 18 13 10 8 9 9 6 7 14 22 27 30 33 31 27 24 19 13 10 10 11 12 13 13 13 14 13 12 12 14 14 13 13 13 13 14 14 14 13 13 15 16 18 20 22 25 26 27 28 31 33 31 29 29 30 31 32 31 31 31 30 30 30 28
19 19 18 18 18 18 17 16 15 14 14 13 12 11 10 9 11 12 14 18 21 18 12 8 8 10 9 6 9 19 27 31 35 37 33 27 23 17 12 10 11 12 12 13 13 13 13 13 12 12 13 13 13 13 14 14 15 15 15 14 15 16 16 18 19 21 23 25 27 30 31 32 32 32 31 31 32 33 34 33 32 32 32 34 34
19 18 18 18 18 17 16 15 14 14 14 13 12 12 11 10 10 12 14 17 19 17 12 8 8 11 9 6 11 24 31 34 38 40 33 23 17 14 12 10 11 12 12 12 14 15 13 12 12 12 12 13 13 14 15 15 15 15 15 15 15 14 16 18 19 19 21 24 27 30 30 29 31 32 31 31 33 35 36 35 35 35 35 36 36
19 19 18 18 17 16 15 14 14 14 14 13 12 12 12 12 10 11 15 18 17 15 12 8 8 9 8 6 13 26 35 37 38 36 28 17 12 11 10 10 10 11 12 14 15 14 12 11 12 12 13 14 14 14 15 15 15 15 15 15 15 15 18 20 19 19 20 24 28 31 29 27 27 28 29 31 33 35 37 38 38 37 35 33 33
18 18 18 17 16 15 14 13 13 13 13 14 14 13 13 13 11 11 14 19 20 16 11 8 8 8 8 7 12 26 35 37 35 29 18 11 10 9 9 10 11 10 13 15 15 12 11 12 12 13 13 14 14 15 15 14 14 14 15 16 17 17 18 19 20 19 20 25 31 31 26 23 26 29 31 33 34 33 33 33 30 28 26 24 23
18 18 17 16 15 14 13 13 13 13 14 14 15 14 13 13 12 11 13 18 21 18 12 8 7 8 8 6 11 24 34 34 29 21 11 8 9 9 9 11 11 11 13 14 13 12 12 12 12 13 13 15 15 14 14 14 13 14 16 17 17 18 18 18 18 19 22 28 32 30 25 26 29 28 22 19 19 20 20 20 19 17 16 15 14
19 18 17 15 14 13 13 13 13 13 14 14 14 14 14 13 12 12 13 16 19 18 15 10 6 7 9 7 8 19 29 30 23 15 10 8 9 10 11 11 10 12 14 14 13 12 12 11 12 13 13 15 15 14 14 14 13 14 16 16 16 18 18 17 17 19 25 31 33 31 30 27 21 14 10 10 14 16 13 13 16 17 14 14 14
19 17 15 14 13 12 13 13 14 13 13 13 14 14 13 12 12 12 13 15 17 17 15 12 8 7 9 7 6 13 23 27 21 14 11 10 10 11 12 11 10 12 14 14 12 12 11 11 13 13 13 15 15 13 14 14 13 14 15 16 17 18 16 16 18 20 26 35 38 34 28 19 10 8 10 12 16 18 12 8 12 17 17 15 15
18 16 14 13 13 13 13 13 13 13 13 13 13 14 13 12 12 12 12 14 16 16 16 13 10 8 8 8 7 8 15 23 23 18 13 13 13 13 12 11 11 13 14 13 12 11 11 12 12 12 14 15 14 13 14 13 13 15 15 16 18 17 15 17 19 20 30 42 39 26 17 11 7 10 12 11 14 19 15 9 9 13 17 18 16
16 15 14 13 13 13 13 13 13 13 13 13 14 14 14 13 13 12 13 13 14 15 15 14 12 9 7 8 8 7 8 15 22 22 18 15 15 15 13 11 11 13 14 13 12 11 12 14 13 12 15 15 13 13 13 12 13 15 15 18 19 15 16 19 18 22 38 45 28 12 13 14 10 9 11 11 14 17 15 12 11 12 15 19 19
15 14 13 13 13 13 13 14 14 14 14 14 14 14 14 14 13 12 12 12 13 14 14 14 13 12 8 7 8 8 7 8 15 21 22 18 16 16 14 11 11 13 14 13 12 11 13 14 13 13 15 14 13 13 12 12 14 14 15 19 18 14 17 19 17 28 46 38 11 5 17 19 9 8 11 12 14 15 14 13 14 15 16 20 23
14 13 13 13 13 14 14 14 14 15 14 14 14 14 14 14 14 13 12 12 12 13 14 13 13 13 11 8 8 9 8 6 8 15 21 21 17 16 14 12 11 12 14 13 11 11 13 13 12 14 14 13 13 13 12 12 13 13 16 19 17 15 18 16 18 37 46 23 -0 8 22 17 10 12 15 15 16 17 17 17 16 17 19 20 21
13 13 13 13 13 14 15 15 15 15 15 15 15 15 15 15 14 13 13 12 12 12 13 13 13 13 13 11 9 8 9 8 6 8 16 21 20 16 13 13 12 12 14 14 11 11 13 13 12 14 15 13 12 12 12 13 12 13 16 18 16 18 18 12 20 44 43 11 -4 11 21 16 15 17 16 18 19 16 16 19 18 16 18 18 17
14 13 14 15 15 15 16 16 16 16 16 16 15 15 14 15 14 14 13 12 12 12 12 13 13 13 13 13 12 9 8 9 8 6 9 17 22 20 14 12 12 13 13 14 12 11 13 13 13 13 14 13 12 11 13 13 12 12 16 17 15 20 19 11 21 45 39 5 -4 13 19 14 18 18 12 14 18 15 14 17 16 13 14 13 11
14 15 15 15 16 16 16 16 16 16 16 16 15 15 14 14 14 14 13 12 12 12 12 12 13 14 13 14 14 12 9 8 9 8 6 10 18 22 18 12 11 13 14 13 12 11 12 13 13 14 13 12 12 12 13 13 12 11 15 16 15 19 20 10 17 41 41 10 -3 11 16 10 10 12 9 10 13 13 13 14 13 12 12 11 8
15 15 15 15 15 15 15 15 15 15 15 15 14 14 14 14 13 13 13 13 12 12 12 12 13 14 14 14 14 14 12 9 8 9 8 7 12 20 21 16 11 11 14 14 11 11 12 12 13 14 13 12 12 12 12 13 12 11 13 15 14 17 20 12 11 32 43 24 3 5 13 10 6 6 8 9 11 11 11 12 13 13 13 11 10
14 14 14 13 13 13 13 13 13 13 13 13 13 13 13 13 13 13 13 13 13 13 13 13 13 13 14 15 14 15 14 11 8 9 9 7 8 14 20 20 13 10 14 15 12 10 12 13 13 13 13 11 12 12 11 12 13 10 11 14 14 15 19 17 11 20 37 37 17 4 5 8 7 5 4 5 7 8 9 9 11 13 15 14 14
12 12 12 12 12 12 12 12 13 13 13 13 13 13 13 13 13 14 13 13 14 14 13 14 14 14 14 15 15 15 15 14 11 9 9 8 7 9 16 21 17 11 12 15 13 10 11 13 13 13 13 11 11 12 11 11 13 12 9 12 16 15 17 19 15 14 24 35 32 18 7 4 6 7 7 6 6 6 7 7 7 9 10 11 12
12 12 13 13 13 13 13 13 14 14 14 14 14 14 14 14 14 14 14 14 14 14 14 14 14 14 14 14 15 15 15 15 14 11 9 9 8 7 11 18 20 14 11 14 14 10 10 13 14 13 13 11 11 12 11 11 13 14 11 10 14 16 15 16 18 16 16 24 32 32 23 13 7 5 5 7 7 6 6 6 5 5 6 6 7
15 15 16 16 16 16 16 16 16 15 16 16 16 16 16 16 15 15 15 15 14 15 15 14 14 14 14 14 14 14 14 14 15 14 11 9 9 8 8 14 19 17 13 13 14 11 9 12 14 13 12 12 11 11 12 11 11 13 13 11 11 14 15 14 15 15 15 16 22 28 31 29 23 16 13 14 15 14 13 12 11 11 10 10 9
17 17 17 17 17 16 16 16 16 15 15 15 15 15 15 16 16 15 16 16 15 15 15 16 16 15 15 15 15 15 15 14 14 14 13 10 10 9 8 10 17 19 15 12 13 12 9 11 14 13 12 12 11 11 11 12 11 11 13 13 11 11 13 13 12 12 13 13 14 17 20 24 26 24 23 23 23 22 21 20 19 17 16 15 15
Height
5402 5397 5392 5387 5383 5378 5375 5372 5369 5366 5363 5361 5359 5358 5356 5355 5354 5353 5352 5351 5350 5349 5349 5348 5346 5345 5344 5344 5343 5343 5342 5342 5342 5343 5344 5345 5345 5347 5350 5353 5356 5360 5363 5368 5372 5377 5382 5386 5389 5392 5395 5400 5404 5409 5413 5418 5422 5426 5430 5435 5439 5443 5448 5452 5461 5469 5471 5475 5482 5485 5488 5493 5497 5502 5506 5509 5512 5516 5519 5523 5527 5531 5535 5539 5542
5393 5388 5384 5379 5375 5370 5366 5364 5361 5359 5356 5354 5352 5350 5349 5347 5346 5345 5344 5343 5341 5341 5340 5339 5337 5336 5335 5334 5334 5333 5332 5332 5332 5332 5333 5333 5333 5335 5337 5339 5342 5345 5348 5352 5356 5361 5366 5371 5375 5378 5381 5385 5389 5393 5398 5403 5408 5413 5417 5421 5426 5429 5433 5438 5446 5454 5459 5464 5468 5471 5476 5481 5486 5491 5495 5499 5503 5505 5508 5513 5517 5521 5525 5529 5532
5384 5380 5375 5371 5366 5362 5358 5355 5353 5351 5349 5346 5345 5342 5341 5339 5337 5336 5335 5333 5332 5331 5330 5329 5328 5326 5325 5324 5323 5322 5322 5321 5321 5321 5321 5321 5322 5323 5324 5326 5328 5331 5334 5337 5341 5345 5350 5355 5360 5363 5366 5371 5375 5378 5382 5387 5393 5398 5403 5408 5413 5417 5420 5425 5431 5438 5446 5453 5456 5458 5464 5469 5474 5479 5483 5488 5492 5494 5498 5503 5506 5510 5515 5519 5523
5375 5371 5366 5362 5358 5353 5349 5346 5344 5342 5340 5338 5336 5334 5333 5331 5329 5327 5325 5323 5322 5320 5319 5318 5317 5316 5314 5313 5312 5311 5311 5310 5310 5310 5310 5310 5310 5311 5312 5313 5315 5317 5320 5323 5326 5329 5334 5339 5344 5347 5351 5356 5362 5365 5368 5372 5377 5382 5389 5394 5399 5404 5408 5412 5418 5424 5431 5439 5444 5445 5450 5456 5461 5467 5471 5475 5480 5484 5488 5492 5495 5500 5505 5508 5512
5366 5362 5357 5353 5349 5345 5341 5337 5335 5333 5331 5329 5327 5326 5324 5322 5320 5318 5315 5313 5311 5309 5308 5307 5306 5305 5303 5302 5301 5300 5299 5299 5299 5299 5299 5298 5299 5300 5300 5301 5303 5305 5307 5309 5312 5315 5319 5323 5328 5331 5335 5341 5348 5352 5355 5358 5361 5366 5373 5379 5384 5390 5394 5399 5405 5410 5416 5424 5431 5433 5436 5443 5449 5454 5458 5463 5467 5472 5476 5481 5484 5489 5493 5497 5501
5357 5353 5348 5344 5340 5336 5332 5329 5326 5324 5321 5320 5318 5316 5314 5312 5310 5308 5305 5303 5301 5298 5296 5295 5293 5292 5291 5290 5289 5288 5287 5287 5287 5288 5287 5287 5288 5288 5289 5290 5291 5293 5295 5297 5299 5302 5305 5309 5313 5316 5320 5327 5333 5338 5342 5346 5348 5352 5357 5363 5368 5374 5380 5385 5390 5397 5403 5410 5416 5420 5424 5430 5435 5440 5445 5450 5455 5459 5464 5468 5473 5477 5481 5485 5489
5348 5344 5339 5335 5331 5327 5324 5321 5318 5315 5313 5310 5308 5306 5304 5302 5299 5297 5295 5292 5290 5288 5285 5283 5281 5280 5279 5278 5277 5277 5276 5276 5276 5276 5276 5276 5277 5277 5278 5279 5280 5282 5283 5285 5287 5290 5292 5295 5298 5302 5306 5312 5317 5322 5327 5331 5335 5339 5344 5347 5351 5357 5364 5370 5375 5381 5389 5396 5402 5406 5411 5417 5422 5427 5432 5436 5441 5447 5452 5456 5460 5465 5469 5473 5478
5339 5335 5330 5326 5322 5318 5315 5312 5309 5306 5304 5301 5299 5296 5294 5291 5288 5285 5283 5281 5278 5276 5274 5272 5270 5268 5267 5266 5265 5265 5265 5265 5265 5264 5264 5265 5266 5266 5267 5268 5269 5271 5273 5274 5276 5278 5280 5282 5285 5288 5292 5297 5302 5307 5311 5315 5320 5326 5331 5334 5337 5340 5346 5354 5360 5366 5373 5381 5388 5393 5398 5403 5408 5414 5420 5423 5426 5435 5441 5443 5447 5452 5455 5460 5465
5330 5326 5321 5317 5313 5309 5306 5303 5300 5298 5295 5292 5289 5286 5283 5280 5277 5274 5271 5269 5266 5264 5262 5260 5259 5257 5255 5254 5254 5254 5254 5255 5254 5253 5253 5254 5254 5255 5256 5257 5259 5260 5262 5264 5265 5266 5269 5271 5273 5275 5279 5283 5288 5292 5295 5299 5304 5309 5316 5320 5323 5326 5330 5335 5342 5350 5358 5366 5373 5380 5384 5390 5395 5401 5406 5409 5415 5423 5428 5429 5433 5439 5443 5446 5451
5321 5317 5313 5308 5304 5300 5297 5294 5291 5288 5285 5282 5279 5276 5273 5270 5267 5263 5259 5257 5255 5252 5250 5249 5247 5246 5245 5244 5244 5243 5243 5244 5244 5243 5243 5243 5244 5245 5246 5248 5249 5251 5252 5254 5255 5256 5257 5259 5261 5264 5266 5269 5273 5277 5281 5284 5288 5293 5299 5303 5307 5312 5316 5319 5324 5332 5342 5350 5358 5365 5369 5376 5383 5389 5393 5398 5403 5409 5412 5414 5420 5427 5429 5431 5437
5312 5308 5304 5299 5295 5291 5287 5284 5281 5279 5275 5272 5269 5266 5263 5259 5256 5252 5249 5246 5243 5241 5239 5238 5236 5235 5235 5235 5234 5234 5233 5233 5233 5233 5233 5233 5233 5234 5236 5238 5240 5241 5242 5243 5245 5246 5247 5248 5250 5252 5254 5257 5259 5262 5266 5269 5272 5277 5281 5285 5289 5295 5301 5306 5311 5317 5324 5332 5341 5349 5354 5362 5370 5375 5380 5386 5390 5393 5397 5401 5407 5412 5413 5416 5426
5302 5298 5294 5290 5286 5281 5277 5274 5271 5268 5265 5262 5259 5256 5252 5249 5245 5242 5238 5236 5233 5231 5229 5227 5226 5226 5225 5225 5225 5224 5224 5224 5223 5223 5223 5223 5223 5224 5226 5228 5230 5231 5233 5234 5235 5235 5236 5237 5239 5240 5242 5244 5246 5249 5252 5254 5257 5261 5265 5268 5273 5279 5285 5291 5297 5304 5308 5314 5322 5330 5338 5348 5357 5361 5366 5373 5377 5378 5382 5386 5391 5397 5399 5403 5414
5292 5288 5284 5280 5276 5272 5268 5264 5261 5258 5255 5252 5249 5246 5242 5239 5235 5231 5228 5226 5223 5221 5219 5218 5217 5216 5216 5215 5215 5215 5215 5214 5213 5213 5214 5214 5214 5214 5216 5218 5220 5222 5223 5224 5225 5225 5226 5227 5228 5230 5231 5233 5235 5237 5239 5241 5244 5247 5250 5254 5259 5265 5270 5275 5281 5288 5294 5299 5305 5313 5323 5333 5341 5347 5352 5357 5360 5362 5366 5371 5377 5383 5386 5390 5401
5282 5278 5274 5270 5266 5263 5259 5255 5251 5248 5245 5242 5239 5236 5232 5229 5225 5222 5219 5216 5214 5212 5210 5209 5208 5207 5206 5206 5206 5206 5206 5205 5204 5204 5205 5205 5205 5205 5207 5208 5210 5212 5213 5214 5215 5215 5216 5217 5218 5220 5221 5222 5224 5226 5227 5229 5232 5234 5238 5242 5246 5252 5256 5260 5265 5272 5278 5283 5290 5301 5311 5316 5323 5332 5337 5339 5341 5345 5351 5357 5362 5367 5371 5377 5387
5272 5268 5264 5260 5257 5253 5249 5245 5242 5238 5235 5232 5229 5226 5223 5219 5216 5212 5210 5207 5205 5204 5202 5200 5199 5198 5197 5197 5197 5197 5197 5196 5195 5196 5196 5196 5196 5196 5198 5199 5201 5202 5203 5204 5205 5206 5206 5207 5208 5210 5211 5213 5214 5215 5216 5218 5220 5222 5226 5230 5234 5238 5242 5246 5251 5256 5261 5267 5274 5285 5295 5299 5303 5313 5318 5319 5323 5329 5336 5342 5346 5351 5357 5362 5371
5262 5258 5254 5250 5247 5243 5239 5235 5232 5229 5226 5222 5219 5216 5213 5209 5206 5203 5201 5199 5197 5195 5193 5192 5191 5190 5189 5188 5188 5188 5188 5187 5186 5187 5187 5187 5187 5188 5189 5190 5191 5192 5194 5194 5195 5196 5197 5197 5199 5200 5202 5203 5205 5205 5206 5207 5209 5212 5215 5218 5222 5226 5230 5235 5239 5241 5245 5250 5257 5266 5276 5281 5286 5293 5299 5301 5306 5314 5321 5325 5329 5335 5340 5346 5356
5252 5248 5244 5240 5236 5232 5229 5225 5222 5219 5216 5213 5210 5206 5203 5200 5197 5194 5192 5190 5189 5187 5185 5184 5183 5182 5181 5180 5180 5180 5180 5178 5178 5178 5179 5179 5179 5179 5180 5181 5182 5183 5185 5185 5185 5186 5187 5188 5189 5191 5193 5194 5195 5196 5196 5196 5198 5201 5204 5206 5210 5214 5220 5224 5225 5226 5229 5233 5239 5246 5256 5264 5269 5275 5282 5285 5289 5297 5302 5305 5313 5321 5325 5330 5340
5242 5238 5234 5230 5226 5222 5219 5215 5212 5209 5206 5203 5200 5197 5193 5190 5187 5185 5183 5182 5180 5179 5177 5176 5174 5173 5173 5172 5171 5172 5172 5170 5169 5170 5170 5170 5170 5171 5171 5172 5174 5175 5176 5176 5176 5177 5178 5179 5180 5182 5184 5185 5185 5186 5185 5186 5188 5190 5192 5195 5198 5203 5210 5212 5210 5212 5215 5217 5221 5229 5237 5246 5252 5257 5264 5269 5274 5281 5283 5287 5298 5307 5308 5313 5324
5232 5228 5224 5220 5215 5212 5209 5206 5203 5200 5197 5194 5190 5187 5184 5181 5178 5176 5175 5173 5172 5171 5169 5168 5167 5165 5164 5164 5163 5163 5164 5163 5161 5161 5162 5162 5162 5162 5163 5164 5165 5166 5166 5167 5168 5169 5170 5171 5171 5172 5174 5175 5176 5176 5175 5175 5177 5180 5182 5185 5189 5195 5199 5198 5197 5200 5203 5202 5206 5214 5221 5228 5235 5240 5247 5252 5258 5263 5267 5272 5282 5288 5290 5297 5308
5222 5218 5214 5209 5205 5202 5198 5196 5193 5190 5187 5184 5181 5178 5175 5172 5170 5168 5166 5165 5164 5163 5161 5160 5159 5158 5157 5156 5156 5155 5155 5155 5154 5153 5154 5153 5153 5153 5155 5156 5157 5157 5158 5159 5160 5160 5161 5162 5163 5163 5164 5165 5166 5166 5166 5166 5168 5171 5173 5176 5181 5186 5186 5184 5186 5190 5191 5191 5195 5200 5205 5212 5219 5224 5231 5238 5243 5248 5252 5257 5264 5270 5274 5282 5291
5212 5207 5203 5199 5195 5192 5188 5186 5183 5181 5177 5174 5172 5169 5166 5163 5161 5160 5158 5157 5156 5155 5154 5152 5152 5151 5149 5148 5148 5147 5147 5147 5146 5146 5145 5146 5145 5145 5146 5148 5148 5149 5150 5151 5152 5152 5153 5153 5154 5155 5155 5155 5156 5157 5158 5159 5160 5162 5165 5168 5172 5174 5173 5174 5177 5178 5179 5182 5186 5188 5192 5198 5204 5210 5217 5223 5228 5233 5238 5241 5246 5252 5259 5266 5274
5201 5197 5193 5189 5185 5182 5179 5176 5173 5171 5168 5165 5163 5160 5157 5155 5153 5152 5150 5149 5148 5147 5145 5144 5144 5143 5142 5141 5140 5139 5138 5138 5138 5138 5138 5138 5138 5137 5138 5139 5140 5141 5142 5143 5144 5144 5144 5145 5146 5146 5146 5147 5148 5149 5150 5151 5151 5154 5157 5159 5162 5163 5163 5164 5167 5167 5169 5172 5175 5177 5181 5185 5190 5196 5202 5208 5214 5219 5223 5227 5231 5235 5241 5249 5256
5191 5187 5183 5179 5176 5172 5169 5167 5164 5161 5158 5156 5154 5152 5149 5147 5145 5144 5142 5141 5140 5139 5137 5136 5135 5135 5134 5133 5132 5131 5130 5129 5130 5130 5130 5130 5130 5130 5131 5131 5132 5132 5134 5135 5136 5136 5136 5137 5138 5138 5138 5139 5140 5140 5141 5143 5144 5147 5149 5150 5151 5153 5153 5154 5156 5157 5159 5161 5162 5165 5169 5173 5176 5181 5187 5193 5199 5204 5209 5213 5216 5219 5222 5228 5236
5180 5177 5173 5169 5166 5163 5160 5158 5154 5152 5149 5147 5145 5143 5141 5139 5137 5136 5134 5133 5132 5131 5129 5128 5127 5126 5126 5125 5124 5123 5122 5121 5121 5121 5121 5122 5122 5123 5123 5124 5124 5125 5126 5127 5128 5128 5129 5130 5130 5131 5131 5132 5132 5132 5133 5135 5137 5139 5140 5140 5141 5142 5143 5144 5145 5146 5147 5149 5151 5154 5157 5160 5163 5167 5172 5178 5183 5188 5192 5196 5199 5203 5206 5211 5219
5170 5167 5163 5160 5157 5154 5151 5148 5145 5142 5140 5138 5137 5135 5133 5131 5129 5128 5126 5125 5123 5122 5121 5119 5118 5117 5117 5117 5116 5114 5113 5113 5113 5113 5113 5113 5115 5115 5116 5116 5117 5117 5118 5119 5120 5121 5121 5122 5123 5123 5124 5124 5125 5125 5126 5127 5128 5130 5131 5132 5132 5133 5133 5133 5134 5135 5136 5138 5140 5142 5144 5147 5149 5152 5157 5162 5166 5169 5174 5180 5185 5190 5193 5198 5204
5160 5157 5153 5150 5148 5145 5142 5140 5137 5134 5131 5129 5128 5127 5125 5123 5122 5120 5118 5116 5115 5114 5112 5111 5110 5110 5109 5109 5108 5107 5105 5105 5104 5104 5104 5105 5107 5108 5109 5109 5110 5110 5111 5112 5113 5113 5114 5115 5116 5116 5117 5117 5118 5118 5118 5119 5120 5121 5122 5123 5123 5124 5123 5124 5124 5124 5125 5127 5128 5129 5132 5134 5135 5138 5142 5146 5150 5154 5161 5167 5171 5176 5181 5185 5191
5150 5147 5143 5141 5138 5136 5133 5131 5128 5125 5123 5121 5120 5119 5117 5116 5114 5112 5110 5109 5107 5106 5104 5103 5103 5103 5103 5102 5102 5100 5098 5096 5096 5095 5095 5096 5098 5100 5101 5102 5103 5103 5104 5105 5105 5106 5107 5108 5109 5110 5110 5111 5111 5111 5111 5111 5112 5112 5113 5114 5115 5115 5115 5114 5114 5114 5114 5115 5116 5117 5119 5120 5121 5124 5127 5131 5135 5142 5148 5152 5156 5162 5168 5173 5177
5139 5136 5134 5131 5129 5127 5125 5122 5120 5118 5115 5113 5112 5111 5109 5108 5106 5105 5102 5101 5100 5098 5097 5097 5096 5096 5096 5096 5095 5093 5091 5088 5087 5086 5086 5087 5089 5092 5094 5095 5096 5096 5097 5097 5098 5099 5100 5101 5102 5103 5104 5104 5104 5104 5104 5104 5104 5105 5105 5106 5106 5106 5106 5105 5105 5104 5103 5103 5104 5105 5106 5107 5108 5111 5114 5116 5121 5128 5133 5137 5142 5150 5156 5160 5165
5129 5126 5124 5122 5120 5118 5116 5114 5112 5110 5108 5106 5104 5103 5101 5100 5099 5097 5095 5093 5093 5092 5091 5091 5090 5090 5090 5089 5088 5086 5084 5080 5077 5077 5077 5078 5080 5084 5087 5088 5089 5090 5090 5090 5091 5093 5094 5095 5095 5096 5097 5097 5097 5097 5097 5097 5097 5097 5097 5098 5098 5098 5097 5096 5095 5094 5093 5092 5092 5093 5094 5095 5097 5099 5101 5104 5109 5115 5120 5124 5130 5137 5143 5147 5153
5120 5117 5114 5113 5111 5109 5107 5106 5104 5102 5101 5099 5098 5096 5094 5092 5091 5090 5088 5086 5085 5085 5084 5084 5084 5083 5083 5082 5080 5078 5075 5072 5069 5068 5068 5069 5071 5076 5080 5081 5082 5083 5083 5084 5085 5087 5088 5088 5089 5089 5090 5091 5091 5091 5090 5090 5090 5090 5090 5090 5089 5089 5089 5088 5086 5084 5083 5082 5082 5082 5083 5084 5086 5088 5090 5094 5098 5103 5108 5113 5118 5125 5130 5136 5142
5110 5108 5105 5104 5102 5101 5099 5098 5096 5095 5093 5092 5091 5089 5088 5085 5084 5082 5081 5080 5078 5077 5078 5078 5077 5077 5077 5076 5074 5070 5066 5063 5061 5060 5060 5061 5064 5069 5073 5075 5075 5077 5078 5079 5080 5081 5081 5082 5083 5083 5084 5084 5084 5084 5083 5083 5083 5082 5082 5082 5082 5081 5080 5079 5077 5076 5074 5074 5073 5073 5073 5075 5077 5079 5081 5084 5089 5093 5098 5103 5108 5114 5120 5127 5133
5102 5099 5097 5095 5094 5092 5091 5090 5089 5087 5086 5085 5084 5083 5082 5080 5077 5075 5074 5073 5072 5071 5071 5071 5071 5071 5070 5069 5067 5063 5059 5056 5054 5052 5053 5054 5058 5062 5066 5068 5070 5071 5072 5073 5074 5075 5075 5076 5077 5077 5078 5078 5077 5077 5077 5077 5076 5076 5075 5075 5074 5073 5072 5071 5069 5068 5067 5066 5065 5065 5065 5066 5068 5071 5073 5077 5081 5085 5090 5095 5100 5106 5112 5119 5125
5093 5091 5089 5088 5086 5085 5084 5082 5081 5080 5079 5078 5077 5076 5075 5074 5072 5069 5067 5066 5065 5065 5065 5065 5065 5064 5063 5063 5061 5057 5052 5049 5047 5047 5047 5049 5052 5056 5060 5063 5064 5065 5066 5067 5068 5069 5070 5071 5071 5071 5072 5072 5072 5071 5071 5071 5070 5070 5069 5068 5067 5066 5065 5064 5062 5061 5060 5059 5058 5058 5059 5060 5062 5065 5068 5071 5075 5079 5084 5089 5094 5100 5106 5112 5118
5085 5083 5082 5080 5079 5077 5076 5075 5074 5074 5073 5071 5070 5069 5068 5067 5066 5064 5062 5060 5059 5058 5058 5058 5059 5058 5057 5056 5054 5051 5047 5044 5043 5043 5044 5045 5048 5052 5055 5057 5058 5059 5060 5062 5063 5064 5065 5065 5065 5066 5066 5066 5066 5066 5065 5065 5064 5064 5063 5062 5061 5060 5059 5057 5056 5055 5054 5053 5053 5053 5054 5056 5058 5061 5064 5067 5071 5075 5079 5084 5089 5094 5100 5106 5112
5077 5076 5074 5073 5072 5070 5069 5068 5067 5067 5066 5065 5064 5063 5062 5060 5059 5058 5057 5055 5054 5053 5052 5052 5052 5052 5052 5051 5049 5046 5043 5041 5040 5040 5041 5043 5045 5048 5050 5052 5052 5054 5056 5057 5058 5059 5060 5060 5060 5061 5061 5061 5061 5061 5060 5060 5059 5058 5058 5057 5055 5054 5053 5052 5051 5049 5049 5049 5049 5050 5051 5053 5055 5058 5061 5064 5068 5072 5077 5081 5085 5090 5095 5101 5107
5070 5068 5067 5066 5065 5064 5062 5061 5061 5060 5059 5058 5057 5056 5055 5054 5053 5052 5051 5050 5049 5048 5047 5046 5046 5046 5046 5046 5045 5043 5040 5039 5038 5038 5039 5040 5042 5044 5045 5047 5048 5049 5051 5052 5053 5054 5055 5055 5056 5056 5056 5056 5056 5056 5055 5055 5054 5054 5053 5052 5051 5050 5048 5047 5046 5045 5045 5045 5045 5047 5049 5051 5053 5056 5060 5063 5067 5071 5074 5079 5083 5087 5092 5097 5103
5063 5061 5060 5059 5058 5057 5056 5055 5054 5053 5052 5051 5050 5050 5049 5048 5047 5046 5045 5044 5043 5043 5042 5042 5042 5041 5041 5041 5040 5039 5037 5036 5036 5036 5036 5037 5038 5040 5041 5042 5044 5045 5046 5047 5048 5049 5050 5050 5051 5051 5052 5052 5052 5051 5051 5051 5050 5049 5048 5047 5047 5045 5044 5043 5042 5042 5042 5042 5043 5045 5047 5049 5053 5056 5059 5063 5066 5069 5072 5076 5080 5085 5090 5095 5100
5056 5055 5053 5052 5051 5050 5049 5048 5047 5046 5045 5044 5044 5043 5042 5041 5041 5040 5039 5038 5037 5037 5037 5037 5037 5037 5036 5036 5036 5036 5034 5033 5033 5033 5033 5034 5035 5036 5038 5039 5040 5041 5042 5043 5044 5045 5046 5046 5047 5047 5047 5048 5048 5047 5047 5047 5046 5045 5045 5044 5043 5042 5041 5040 5039 5039 5039 5040 5041 5043 5046 5049 5052 5055 5058 5062 5066 5069 5071 5074 5079 5084 5089 5094 5099
5050 5048 5047 5046 5045 5044 5043 5042 5040 5039 5038 5038 5037 5036 5036 5035 5034 5034 5033 5032 5032 5032 5031 5031 5032 5032 5032 5032 5032 5031 5031 5030 5030 5030 5030 5030 5031 5032 5034 5035 5036 5037 5038 5039 5040 5041 5042 5042 5043 5043 5044 5044 5044 5044 5043 5043 5042 5042 5041 5040 5040 5039 5038 5037 5037 5037 5037 5038 5040 5043 5046 5049 5052 5055 5058 5061 5065 5069 5072 5075 5079 5083 5088 5092 5097
5043 5042 5041 5039 5038 5037 5036 5035 5034 5033 5032 5031 5031 5030 5029 5029 5028 5028 5027 5027 5026 5026 5026 5026 5026 5027 5027 5027 5027 5027 5027 5026 5026 5026 5026 5027 5027 5028 5030 5031 5032 5033 5034 5035 5036 5037 5038 5039 5039 5040 5040 5040 5040 5040 5040 5040 5039 5039 5038 5038 5037 5036 5036 5035 5035 5035 5036 5038 5040 5043 5046 5049 5052 5055 5058 5060 5064 5068 5072 5076 5079 5083 5087 5091 5096
5038 5036 5035 5033 5032 5031 5029 5028 5027 5026 5025 5025 5024 5024 5023 5023 5022 5022 5021 5021 5021 5020 5020 5020 5021 5021 5022 5022 5022 5022 5022 5022 5022 5022 5022 5023 5024 5025 5026 5027 5028 5029 5030 5031 5032 5033 5034 5035 5036 5036 5037 5037 5037 5037 5037 5037 5037 5036 5036 5035 5035 5034 5034 5034 5034 5034 5036 5038 5041 5044 5046 5049 5052 5055 5058 5061 5064 5068 5071 5075 5079 5083 5087 5091 5095
5032 5031 5029 5027 5026 5024 5023 5022 5021 5020 5019 5018 5018 5017 5017 5017 5016 5016 5015 5015 5015 5015 5015 5015 5015 5016 5016 5017 5018 5018 5018 5018 5018 5018 5018 5019 5020 5021 5022 5023 5024 5025 5026 5027 5029 5030 5031 5032 5033 5033 5034 5034 5035 5035 5035 5035 5034 5034 5034 5033 5033 5033 5033 5033 5033 5034 5036 5038 5041 5044 5047 5050 5053 5055 5059 5062 5065 5068 5072 5075 5079 5083 5087 5090 5095
5026 5025 5023 5021 5020 5018 5017 5016 5014 5013 5012 5012 5011 5011 5011 5010 5010 5010 5010 5009 5009 5009 5009 5009 5010 5010 5011 5012 5013 5013 5013 5014 5014 5014 5015 5015 5016 5017 5018 5019 5020 5022 5023 5024 5025 5027 5028 5029 5030 5031 5031 5032 5032 5032 5033 5033 5033 5032 5032 5032 5032 5032 5032 5032 5033 5034 5036 5039 5042 5044 5047 5050 5053 5056 5059 5063 5066 5069 5072 5076 5079 5083 5087 5090 5094
5020 5019 5017 5015 5013 5012 5011 5009 5008 5007 5006 5005 5005 5004 5004 5004 5004 5004 5004 5003 5003 5003 5004 5004 5004 5005 5005 5006 5007 5008 5009 5009 5010 5010 5011 5011 5012 5013 5014 5015 5016 5018 5019 5021 5022 5024 5025 5026 5027 5028 5029 5030 5030 5030 5031 5031 5031 5031 5031 5031 5031 5031 5032 5032 5033 5035 5037 5040 5042 5045 5048 5051 5054 5057 5060 5063 5066 5070 5073 5076 5080 5083 5087 5091 5095
5015 5013 5011 5009 5007 5006 5004 5003 5002 5001 5000 4999 4998 4998 4998 4997 4997 4997 4997 4997 4997 4998 4998 4998 4998 4999 4999 5001 5002 5003 5004 5004 5005 5006 5007 5008 5008 5009 5010 5011 5013 5014 5016 5018 5019 5021 5022 5023 5024 5026 5027 5027 5028 5029 5029 5030 5030 5030 5030 5031 5031 5031 5032 5033 5034 5036 5038 5041 5043 5046 5048 5051 5054 5058 5061 5064 5067 5071 5074 5077 5081 5084 5088 5092 5096
5009 5007 5005 5003 5001 5000 4998 4997 4996 4995 4994 4993 4992 4991 4991 4991 4991 4991 4991 4991 4991 4991 4992 4992 4992 4993 4994 4995 4996 4997 4998 4999 5001 5002 5003 5004 5005 5005 5006 5008 5009 5011 5013 5014 5016 5018 5019 5021 5022 5023 5025 5026 5026 5027 5028 5029 5029 5030 5030 5030 5031 5032 5032 5033 5035 5037 5039 5042 5044 5046 5049 5052 5055 5058 5061 5065 5068 5071 5075 5078 5082 5085 5089 5092 5096
5003 5001 4999 4997 4995 4994 4992 4991 4990 4988 4987 4986 4986 4985 4984 4984 4984 4984 4984 4984 4984 4985 4985 4986 4986 4987 4988 4989 4990 4991 4993 4994 4995 4997 4998 5000 5001 5002 5003 5004 5006 5008 5009 5011 5013 5015 5017 5018 5020 5021 5023 5024 5025 5026 5027 5028 5029 5029 5030 5030 5031 5032 5033 5034 5036 5037 5040 5042 5045 5047 5050 5053 5056 5059 5062 5065 5068 5072 5075 5078 5082 5085 5088 5092 5095
4998 4995 4993 4991 4989 4987 4986 4984 4983 4982 4981 4980 4979 4978 4978 4977 4977 4977 4977 4977 4978 4978 4978 4979 4980 4981 4982 4983 4984 4985 4987 4989 4990 4992 4994 4995 4997 4998 4999 5000 5002 5004 5006 5008 5010 5012 5014 5016 5018 5019 5021 5022 5023 5025 5026 5027 5028 5029 5030 5031 5032 5033 5034 5035 5037 5038 5040 5043 5046 5048 5051 5054 5056 5059 5062 5065 5069 5072 5075 5078 5081 5084 5088 5091 5095
4992 4990 4987 4985 4983 4981 4979 4978 4976 4975 4974 4973 4972 4971 4971 4970 4970 4970 4970 4970 4970 4971 4971 4972 4973 4974 4975 4977 4978 4979 4981 4983 4985 4987 4989 4990 4992 4994 4995 4997 4999 5001 5003 5005 5007 5010 5012 5014 5015 5017 5019 5020 5022 5024 5025 5027 5028 5029 5030 5031 5032 5033 5035 5036 5038 5039 5041 5043 5046 5049 5051 5054 5057 5060 5063 5066 5069 5072 5075 5078 5081 5084 5087 5091 5094
4986 4984 4982 4979 4977 4975 4973 4971 4969 4968 4966 4965 4965 4964 4963 4963 4963 4962 4962 4962 4963 4963 4964 4965 4966 4967 4968 4970 4972 4973 4975 4977 4979 4981 4983 4986 4988 4990 4991 4993 4995 4998 5000 5002 5005 5007 5009 5011 5013 5015 5017 5019 5021 5023 5024 5026 5028 5029 5030 5032 5033 5034 5036 5037 5039 5041 5043 5045 5047 5049 5052 5055 5058 5061 5063 5066 5069 5072 5075 5078 5081 5084 5087 5090 5093
4980 4978 4975 4973 4970 4968 4966 4964 4962 4960 4959 4958 4957 4956 4955 4955 4955 4955 4954 4955 4955 4955 4956 4957 4958 4960 4961 4963 4965 4967 4969 4971 4973 4975 4978 4980 4983 4985 4987 4989 4992 4994 4996 4999 5002 5004 5007 5009 5011 5013 5015 5017 5019 5022 5023 5025 5027 5029 5030 5032 5033 5035 5036 5038 5040 5042 5044 5046 5048 5050 5053 5056 5058 5061 5064 5067 5069 5072 5075 5078 5081 5084 5087 5090 5093